sat.trackr.live / text

‹ back to catalog

COSMOS 2540

NORAD 44517 · 2019-057A

PAYLOAD ACTIVE UNKNOWN

§ Identity

Operator
Country
CIS
Launch date
2019-08-30
Launch site
PLMSC
Launch vehicle
Mass (kg)
RCS (m²)

External: N2YO · Heavens-Above · Gunter

§ Orbital elements

Epoch: 2026-09-10T05:34:02.038656Z

Period
103.90 min
Inclination
99.2078°
Eccentricity
0.0014829
Mean motion
13.85960439 rev/d
Perigee alt
932.0 km
Apogee alt
953.7 km
Semi-major
7,321.0 km
B*
7.3541e-5
RAAN
263.3415°
Arg perigee
305.2954°
Mean anomaly
54.6815°
Rev number
35,565

§ Raw data

COSMOS 25401 44517U 19057A   26253.23196804  .00000041  00000+0  73541-4 0  99922 44517  99.2078 263.3415 0014829 305.2954  54.6815 13.85960439355655

JSON: /api/v1/satellites/44517 · /tle

For live sub-satellite position, see the globe view (requires WebGL).

§ Visibility from observer

Set your observer location to see the next 7 days of passes ≥ 10°. The values pass through the URL so the page stays shareable.

No JS? Fill the form by hand. The geolocation button needs JavaScript.